﻿_id,日時,平均風速(m/s),平均風向,最大瞬間風速(m/s),最大風速時風向,気温(℃),湿度(%),10分間移動積算雨量(mm),1時間移動積算雨量(mm),日雨量(mm),累計雨量(mm)
1,2020-07-06T00:00:00,0.6,南西,1.8,南,24.3,89.3,0,0,0,0
2,2020-07-06T00:01:00,0.5,西南西,1.8,南,24.2,89.8,0,0,0,0
3,2020-07-06T00:02:00,0.5,西南西,1.8,南,24.2,90.3,0,0,0,0
4,2020-07-06T00:03:00,0.5,西南西,1.2,南西,24.1,90.7,0,0,0,0
5,2020-07-06T00:04:00,0.4,西南西,1.2,南西,24.1,91.1,0,0,0,0
6,2020-07-06T00:05:00,0.4,西,1.2,南西,24,91.5,0,0,0,0
7,2020-07-06T00:06:00,0.4,西,1.2,南西,24,91.8,0,0,0,0
8,2020-07-06T00:07:00,0.3,西,1.2,南西,24,92.1,0,0,0,0
9,2020-07-06T00:08:00,0.3,西,0.9,南南西,23.9,92.3,0,0,0,0
10,2020-07-06T00:09:00,0.2,静穏,0.7,西北西,23.9,92.4,0,0,0,0
11,2020-07-06T00:10:00,0.3,西南西,0.7,西北西,23.9,92.5,0,0,0,0
12,2020-07-06T00:11:00,0.3,西南西,0.8,南西,23.9,93,0,0,0,0
13,2020-07-06T00:12:00,0.3,西南西,0.9,南西,23.9,93.1,0,0,0,0
14,2020-07-06T00:13:00,0.4,西南西,0.9,南西,23.9,92.8,0,0,0,0
15,2020-07-06T00:14:00,0.4,南西,0.9,南西,24,92.7,0,0,0,0
16,2020-07-06T00:15:00,0.3,南西,0.9,南西,23.9,92.6,0,0,0,0
17,2020-07-06T00:16:00,0.3,南西,0.9,南西,23.9,92.9,0,0,0,0
18,2020-07-06T00:17:00,0.3,南西,0.9,南西,23.9,93.1,0,0,0,0
19,2020-07-06T00:18:00,0.3,南西,0.9,南西,23.9,92.9,0,0,0,0
20,2020-07-06T00:19:00,0.3,南西,0.9,南西,23.9,92.7,0,0,0,0
21,2020-07-06T00:20:00,0.3,南西,0.9,南西,23.9,92.8,0,0,0,0
22,2020-07-06T00:21:00,0.2,静穏,0.9,南西,23.8,93.3,0,0,0,0
23,2020-07-06T00:22:00,0.2,静穏,0.7,南西,23.8,93.9,0,0,0,0
24,2020-07-06T00:23:00,0.1,静穏,0.5,南南西,23.7,94.2,0,0,0,0
25,2020-07-06T00:24:00,0.2,静穏,0.7,南南西,23.7,94.2,0,0,0,0
26,2020-07-06T00:25:00,0.2,静穏,0.7,南南西,23.6,94.5,0,0,0,0
27,2020-07-06T00:26:00,0.2,静穏,0.7,南南西,23.6,94.8,0,0,0,0
28,2020-07-06T00:27:00,0.3,南西,0.7,南南西,23.6,95,0,0,0,0
29,2020-07-06T00:28:00,0.3,南西,0.7,南南西,23.6,95.2,0,0,0,0
30,2020-07-06T00:29:00,0.3,南西,0.7,南南西,23.6,95.4,0,0,0,0
31,2020-07-06T00:30:00,0.4,南南西,1,南南西,23.6,95.5,0,0,0,0
32,2020-07-06T00:31:00,0.5,南南西,1,南南西,23.6,95.6,0,0,0,0
33,2020-07-06T00:32:00,0.5,南南西,1,南南西,23.6,95.6,0,0,0,0
34,2020-07-06T00:33:00,0.6,南南西,1,南南西,23.6,95.5,0,0,0,0
35,2020-07-06T00:34:00,0.6,南南西,1,南南西,23.6,95.5,0,0,0,0
36,2020-07-06T00:35:00,0.6,南南西,1.1,南南西,23.6,95.4,0,0,0,0
37,2020-07-06T00:36:00,0.7,南南西,1.1,南南西,23.7,95.4,0,0,0,0
38,2020-07-06T00:37:00,0.7,南南西,1.1,南南西,23.7,95.3,0,0,0,0
39,2020-07-06T00:38:00,0.8,南南西,1.2,南南西,23.7,95.2,0,0,0,0
40,2020-07-06T00:39:00,0.8,南南西,1.2,南南西,23.7,95.1,0,0,0,0
41,2020-07-06T00:40:00,0.8,南南西,1.2,南南西,23.7,95.1,0,0,0,0
42,2020-07-06T00:41:00,0.8,南南西,1.2,南南西,23.7,95.1,0,0,0,0
43,2020-07-06T00:42:00,0.8,南南西,1.2,南南西,23.6,95.1,0,0,0,0
44,2020-07-06T00:43:00,0.9,南南西,1.4,南西,23.6,95.1,0,0,0,0
45,2020-07-06T00:44:00,0.9,南南西,1.4,南西,23.5,95.2,0,0,0,0
46,2020-07-06T00:45:00,0.9,南南西,1.4,南西,23.5,95.3,0,0,0,0
47,2020-07-06T00:46:00,0.9,南南西,1.4,南西,23.5,95.3,0,0,0,0
48,2020-07-06T00:47:00,0.9,南西,1.4,南西,23.5,95.4,0,0,0,0
49,2020-07-06T00:48:00,0.9,南西,1.5,南西,23.6,95.4,0,0,0,0
50,2020-07-06T00:49:00,0.9,南西,1.5,南西,23.6,95.5,0,0,0,0
51,2020-07-06T00:50:00,1,南西,1.5,南西,23.5,95.6,0,0,0,0
52,2020-07-06T00:51:00,1,南西,2.2,南西,23.5,95.8,0,0,0,0
53,2020-07-06T00:52:00,1,南西,2.2,南西,23.4,95.8,0,0,0,0
54,2020-07-06T00:53:00,1.1,南西,2.2,南西,23.4,95.8,0,0,0,0
55,2020-07-06T00:54:00,1.1,南西,2.2,南西,23.4,95.9,0,0,0,0
56,2020-07-06T00:55:00,1.1,南西,2.2,南西,23.4,95.9,0,0,0,0
57,2020-07-06T00:56:00,1.1,南西,2.2,南西,23.4,96,0,0,0,0
58,2020-07-06T00:57:00,1.1,西南西,2.2,南西,23.4,96,0,0,0,0
59,2020-07-06T00:58:00,1.1,西南西,2.2,南西,23.4,96,0,0,0,0
60,2020-07-06T00:59:00,1.1,西南西,2.2,南西,23.4,95.9,0,0,0,0
61,2020-07-06T01:00:00,1.1,西南西,2.2,南西,23.4,95.8,0,0,0,0
62,2020-07-06T01:01:00,1,南西,2.1,西南西,23.5,95.7,0,0,0,0
63,2020-07-06T01:02:00,0.9,南西,2.1,西南西,23.5,95.7,0,0,0,0
64,2020-07-06T01:03:00,0.8,南西,2.1,西南西,23.5,95.7,0,0,0,0
65,2020-07-06T01:04:00,0.7,南西,2.1,西南西,23.5,95.8,0,0,0,0
66,2020-07-06T01:05:00,0.6,南西,1.7,西南西,23.5,95.8,0,0,0,0
67,2020-07-06T01:06:00,0.5,南南西,1.3,南西,23.5,95.9,0,0,0,0
68,2020-07-06T01:07:00,0.5,南南西,1.6,東南東,23.5,95.9,0,0,0,0
69,2020-07-06T01:08:00,0.6,南,1.8,東南東,23.5,95.9,0,0,0,0
70,2020-07-06T01:09:00,0.6,南,1.8,東南東,23.4,95.8,0,0,0,0
71,2020-07-06T01:10:00,0.6,南南東,1.8,東南東,23.5,96,0,0,0,0
72,2020-07-06T01:11:00,0.7,南南東,1.8,東南東,23.5,96,0,0,0,0
73,2020-07-06T01:12:00,0.7,南南東,1.8,東南東,23.6,96.2,0,0,0,0
74,2020-07-06T01:13:00,0.7,南南東,1.8,東南東,23.5,96.1,0,0,0,0
75,2020-07-06T01:14:00,0.8,南東,1.8,東南東,23.4,95.9,0,0,0,0
76,2020-07-06T01:15:00,0.9,南東,1.8,東南東,23.4,96.1,0,0,0,0
77,2020-07-06T01:16:00,0.9,南東,1.8,東南東,23.5,96.2,0,0,0,0
78,2020-07-06T01:17:00,0.8,南東,1.8,東南東,23.4,96.1,0,0,0,0
79,2020-07-06T01:18:00,0.8,南南東,1.5,南南東,23.4,96.2,0,0,0,0
80,2020-07-06T01:19:00,0.7,南南東,1.5,南南東,23.3,96.1,0,0,0,0
81,2020-07-06T01:20:00,0.7,南南東,1.5,南南東,23.3,96.2,0.5,0.5,0.5,0.5
82,2020-07-06T01:21:00,0.7,南南東,1.5,南南東,23.3,96.3,0.5,0.5,0.5,0.5
83,2020-07-06T01:22:00,0.7,南南東,1.5,南南東,23.2,96.4,0.5,0.5,0.5,0.5
84,2020-07-06T01:23:00,0.6,南,1.5,南南東,23.2,96.4,0.5,0.5,0.5,0.5
85,2020-07-06T01:24:00,0.6,南,1.5,南南東,23.3,96.6,0.5,0.5,0.5,0.5
86,2020-07-06T01:25:00,0.5,南,1.4,南東,23.3,96.6,0.5,0.5,0.5,0.5
87,2020-07-06T01:26:00,0.5,南南西,1.4,南東,23.3,96.6,0.5,0.5,0.5,0.5
88,2020-07-06T01:27:00,0.6,南南西,2.6,南西,23.3,96.7,0.5,0.5,0.5,0.5
89,2020-07-06T01:28:00,0.6,南南西,2.6,南西,23.2,96.7,0.5,0.5,0.5,0.5
90,2020-07-06T01:29:00,0.6,南西,2.6,南西,23.2,96.7,0.5,0.5,0.5,0.5
91,2020-07-06T01:30:00,0.6,南西,2.6,南西,23.3,96.8,0,0.5,0.5,0.5
92,2020-07-06T01:31:00,0.6,西南西,2.6,南西,23.2,96.8,0,0.5,0.5,0.5
93,2020-07-06T01:32:00,0.6,西南西,2.6,南西,23.3,96.9,0,0.5,0.5,0.5
94,2020-07-06T01:33:00,0.5,西,2.6,南西,23.3,97,0.5,1,1,1
95,2020-07-06T01:34:00,0.5,西,2.6,南西,23.3,97,0.5,1,1,1
96,2020-07-06T01:35:00,0.4,西北西,2.6,南西,23.3,97.2,0.5,1,1,1
97,2020-07-06T01:36:00,0.4,北西,2.6,南西,23.2,97.1,0.5,1,1,1
98,2020-07-06T01:37:00,0.3,北北西,2.1,南西,23.2,97,0.5,1,1,1
99,2020-07-06T01:38:00,0.2,静穏,1.6,西南西,23.3,97.2,0.5,1,1,1
100,2020-07-06T01:39:00,0.1,静穏,1,西南西,23.2,97.2,1,1.5,1.5,1.5
101,2020-07-06T01:40:00,0.1,静穏,1,西南西,23.1,97,1,1.5,1.5,1.5
102,2020-07-06T01:41:00,0.1,静穏,1.4,西南西,23.1,97.1,1,1.5,1.5,1.5
103,2020-07-06T01:42:00,0.2,静穏,1.4,西南西,23.1,97.1,1,1.5,1.5,1.5
104,2020-07-06T01:43:00,0.2,静穏,1.4,西南西,23.2,97.2,0.5,1.5,1.5,1.5
105,2020-07-06T01:44:00,0.3,南南西,1.4,西南西,23.1,97.2,0.5,1.5,1.5,1.5
106,2020-07-06T01:45:00,0.3,南西,1.8,南西,23.1,97.2,0.5,1.5,1.5,1.5
107,2020-07-06T01:46:00,0.4,南西,2.3,西,23.1,97.2,0.5,1.5,1.5,1.5
108,2020-07-06T01:47:00,0.5,西南西,2.3,西,23.1,97.2,0.5,1.5,1.5,1.5
109,2020-07-06T01:48:00,0.6,西南西,2.3,西,23.1,97.2,0.5,1.5,1.5,1.5
110,2020-07-06T01:49:00,0.6,西南西,2.3,西,23.1,97.3,0,1.5,1.5,1.5
111,2020-07-06T01:50:00,0.6,西,2.3,西,23.2,97.4,0,1.5,1.5,1.5
112,2020-07-06T01:51:00,0.6,西,2.3,西,23.2,97.5,0,1.5,1.5,1.5
113,2020-07-06T01:52:00,0.5,西,2.3,西,23.2,97.4,0,1.5,1.5,1.5
114,2020-07-06T01:53:00,0.5,西,2.3,西,23.1,97.3,0,1.5,1.5,1.5
115,2020-07-06T01:54:00,0.5,西,2.3,西,23.1,97.3,0,1.5,1.5,1.5
116,2020-07-06T01:55:00,0.4,西,2.3,西,23.1,97.4,0,1.5,1.5,1.5
117,2020-07-06T01:56:00,0.3,西,2.2,西南西,23.2,97.6,0,1.5,1.5,1.5
118,2020-07-06T01:57:00,0.2,静穏,1.1,南西,23.2,97.5,0,1.5,1.5,1.5
119,2020-07-06T01:58:00,0.1,静穏,1.1,南西,23.2,97.5,0.5,2,2,2
120,2020-07-06T01:59:00,0.1,静穏,0.8,西北西,23.2,97.5,0.5,2,2,2
121,2020-07-06T02:00:00,0.1,静穏,0.8,西北西,23.1,97.4,0.5,2,2,2
122,2020-07-06T02:01:00,0.1,静穏,0.8,西北西,23.2,97.4,0.5,2,2,2
123,2020-07-06T02:02:00,0.1,静穏,0.7,西北西,23.2,97.6,0.5,2,2,2
124,2020-07-06T02:03:00,0.1,静穏,0.5,東,23.2,97.6,0.5,2,2,2
125,2020-07-06T02:04:00,0.1,静穏,0.6,南,23.2,97.5,0.5,2,2,2
126,2020-07-06T02:05:00,0.1,静穏,0.6,南,23.1,97.4,0.5,2,2,2
127,2020-07-06T02:06:00,0.2,静穏,0.6,南,23.2,97.5,0.5,2,2,2
128,2020-07-06T02:07:00,0.2,静穏,0.6,南,23.1,97.5,0.5,2,2,2
129,2020-07-06T02:08:00,0.2,静穏,0.6,南,23.2,97.5,0,2,2,2
130,2020-07-06T02:09:00,0.2,静穏,0.6,南,23.2,97.6,0,2,2,2
131,2020-07-06T02:10:00,0.2,静穏,0.6,南,23.2,97.6,0,2,2,2
132,2020-07-06T02:11:00,0.1,静穏,0.6,南,23.2,97.6,0,2,2,2
133,2020-07-06T02:12:00,0.1,静穏,0.6,南,23.3,97.6,0,2,2,2
134,2020-07-06T02:13:00,0.1,静穏,0.6,南,23.2,97.6,0,2,2,2
135,2020-07-06T02:14:00,0.1,静穏,0.5,南,23.2,97.6,0,2,2,2
136,2020-07-06T02:15:00,0.1,静穏,0.5,南,23.2,97.5,0,2,2,2
137,2020-07-06T02:16:00,0,静穏,0.2,南,23.2,97.5,0,2,2,2
138,2020-07-06T02:17:00,0,静穏,0.3,北北西,23.2,97.6,0,2,2,2
139,2020-07-06T02:18:00,0,静穏,0.3,北北西,23.1,97.5,0,2,2,2
140,2020-07-06T02:19:00,0,静穏,0.3,北北西,23.2,97.6,0,2,2,2
141,2020-07-06T02:20:00,0.1,静穏,0.6,北北東,23.2,97.6,0,1.5,2,2
142,2020-07-06T02:21:00,0.1,静穏,0.6,北北東,23.3,97.7,0,1.5,2,2
143,2020-07-06T02:22:00,0.2,静穏,0.6,北北東,23.2,97.7,0,1.5,2,2
144,2020-07-06T02:23:00,0.2,静穏,0.7,北北東,23.2,97.6,0,1.5,2,2
145,2020-07-06T02:24:00,0.3,北,0.9,北北東,23.3,97.7,0,1.5,2,2
146,2020-07-06T02:25:00,0.3,北,0.9,北北東,23.3,97.7,0,1.5,2,2
147,2020-07-06T02:26:00,0.4,北,1,北北西,23.2,97.6,0,1.5,2,2
148,2020-07-06T02:27:00,0.4,北,1,北北西,23.1,97.6,0,1.5,2,2
149,2020-07-06T02:28:00,0.4,北,1.2,西,23.1,97.5,0,1.5,2,2
150,2020-07-06T02:29:00,0.5,北北西,1.2,西,23,97.5,0,1.5,2,2
151,2020-07-06T02:30:00,0.5,北北西,1.2,西,23,97.6,0,1.5,2,2
152,2020-07-06T02:31:00,0.4,北西,1.2,西,23.1,97.6,0,1.5,2,2
153,2020-07-06T02:32:00,0.5,北西,1.2,西,23,97.6,0,1.5,2,2
154,2020-07-06T02:33:00,0.4,西北西,1.2,西,23,97.6,0,1,2,2
155,2020-07-06T02:34:00,0.4,西北西,1.2,西,23,97.6,0,1,2,2
156,2020-07-06T02:35:00,0.4,西北西,1.2,西,23.1,97.7,0,1,2,2
157,2020-07-06T02:36:00,0.3,西北西,1.2,西,23.1,97.7,0,1,2,2
158,2020-07-06T02:37:00,0.3,西北西,1.2,西,23.1,97.7,0,1,2,2
159,2020-07-06T02:38:00,0.3,西北西,1.2,西北西,23.1,97.6,0,1,2,2
160,2020-07-06T02:39:00,0.4,北西,1.2,西北西,23,97.6,0,0.5,2,2
161,2020-07-06T02:40:00,0.4,北西,1.2,西北西,23,97.6,0,0.5,2,2
162,2020-07-06T02:41:00,0.5,北西,1.3,北西,23,97.6,0,0.5,2,2
163,2020-07-06T02:42:00,0.4,北西,1.3,北西,23.1,97.7,0,0.5,2,2
164,2020-07-06T02:43:00,0.4,北西,1.3,北西,23.1,97.7,0,0.5,2,2
165,2020-07-06T02:44:00,0.5,北西,1.3,北西,23,97.7,0,0.5,2,2
166,2020-07-06T02:45:00,0.6,北西,1.3,北西,23,97.6,0,0.5,2,2
167,2020-07-06T02:46:00,0.6,北西,1.3,北西,23,97.6,0,0.5,2,2
168,2020-07-06T02:47:00,0.6,北西,1.3,北西,23,97.7,0,0.5,2,2
169,2020-07-06T02:48:00,0.6,北西,1.3,北西,23,97.7,0,0.5,2,2
170,2020-07-06T02:49:00,0.6,北西,1.3,北西,23,97.7,0,0.5,2,2
171,2020-07-06T02:50:00,0.6,北西,1.3,北西,23.1,97.7,0,0.5,2,2
172,2020-07-06T02:51:00,0.6,北北西,1.2,北西,23.1,97.8,0,0.5,2,2
173,2020-07-06T02:52:00,0.6,北北西,1.2,北西,23.1,97.7,0,0.5,2,2
174,2020-07-06T02:53:00,0.6,北北西,1.2,北西,23,97.7,0,0.5,2,2
175,2020-07-06T02:54:00,0.6,北北西,1.1,北,23,97.7,0,0.5,2,2
176,2020-07-06T02:55:00,0.6,北,1.1,北,23.1,97.7,0,0.5,2,2
177,2020-07-06T02:56:00,0.5,北,1.1,北,23.1,97.7,0,0.5,2,2
178,2020-07-06T02:57:00,0.4,北,1.1,北,23,97.7,0.5,1,2.5,2.5
179,2020-07-06T02:58:00,0.4,北,1.1,北,23,97.7,0.5,0.5,2.5,2.5
180,2020-07-06T02:59:00,0.4,北,1.1,北,23,97.7,0.5,0.5,2.5,2.5
181,2020-07-06T03:00:00,0.3,北,1,北北東,23,97.7,0.5,0.5,2.5,2.5
182,2020-07-06T03:01:00,0.2,静穏,1,北北東,23,97.7,0.5,0.5,2.5,2.5
183,2020-07-06T03:02:00,0.2,静穏,1.2,北東,23,97.7,0.5,0.5,2.5,2.5
184,2020-07-06T03:03:00,0.3,北,1.7,北東,23,97.7,0.5,0.5,2.5,2.5
185,2020-07-06T03:04:00,0.4,北,1.7,北東,23.1,97.7,0.5,0.5,2.5,2.5
186,2020-07-06T03:05:00,0.5,北,1.7,北東,23.1,97.7,0.5,0.5,2.5,2.5
187,2020-07-06T03:06:00,0.5,北,1.7,北東,23.1,97.7,0.5,0.5,2.5,2.5
188,2020-07-06T03:07:00,0.6,北北東,1.7,北東,23.1,97.7,0,0.5,2.5,2.5
189,2020-07-06T03:08:00,0.7,北北東,1.8,北,23.1,97.7,0,0.5,2.5,2.5
190,2020-07-06T03:09:00,0.8,北北東,1.8,北,23.1,97.7,0,0.5,2.5,2.5
191,2020-07-06T03:10:00,1,北北東,2,北北東,23.1,97.7,0,0.5,2.5,2.5
192,2020-07-06T03:11:00,1.1,北北東,2,北北東,23,97.7,0,0.5,2.5,2.5
193,2020-07-06T03:12:00,1.1,北北東,2,北北東,23,97.7,0,0.5,2.5,2.5
194,2020-07-06T03:13:00,1.1,北北東,2,北北東,23,97.7,0,0.5,2.5,2.5
195,2020-07-06T03:14:00,1.1,北北東,2,北北東,23,97.7,0,0.5,2.5,2.5
196,2020-07-06T03:15:00,1.1,北北東,2,北北東,23,97.7,0,0.5,2.5,2.5
197,2020-07-06T03:16:00,1.1,北北東,2,北北東,23,97.7,0,0.5,2.5,2.5
198,2020-07-06T03:17:00,1.1,北北東,2,北北東,23.1,97.7,0.5,1,3,3
199,2020-07-06T03:18:00,1,北北東,2,北北東,23,97.7,0.5,1,3,3
200,2020-07-06T03:19:00,0.9,北,2,北北東,23.1,97.7,0.5,1,3,3
201,2020-07-06T03:20:00,0.8,北,2,北北東,23,97.7,0.5,1,3,3
202,2020-07-06T03:21:00,0.9,北,2,北北東,23,97.7,0.5,1,3,3
203,2020-07-06T03:22:00,0.9,北,2,北北東,23,97.7,0.5,1,3,3
204,2020-07-06T03:23:00,0.9,北,2,北北東,23.1,97.7,0.5,1,3,3
205,2020-07-06T03:24:00,0.9,北,2.1,北北東,23,97.7,0.5,1,3,3
206,2020-07-06T03:25:00,0.9,北,2.1,北北東,23,97.7,0.5,1,3,3
207,2020-07-06T03:26:00,0.8,北,2.1,北北東,23,97.7,0.5,1,3,3
208,2020-07-06T03:27:00,0.8,北,2.1,北北東,23,97.7,0,1,3,3
209,2020-07-06T03:28:00,0.8,北,2.1,北北東,23,97.7,0,1,3,3
210,2020-07-06T03:29:00,0.9,北北東,2.1,北北東,23,97.7,0,1,3,3
211,2020-07-06T03:30:00,0.8,北北東,2.1,北北東,23,97.7,0,1,3,3
212,2020-07-06T03:31:00,0.8,北北東,2.1,北北東,23,97.7,0,1,3,3
213,2020-07-06T03:32:00,0.7,北北東,2.1,北北東,23,97.7,0,1,3,3
214,2020-07-06T03:33:00,0.7,北,2.1,北北東,23,97.8,0,1,3,3
215,2020-07-06T03:34:00,0.5,北,1.8,北北東,23,97.7,0,1,3,3
216,2020-07-06T03:35:00,0.5,北,1.7,北北西,23,97.7,0,1,3,3
217,2020-07-06T03:36:00,0.4,北北西,1.7,北北西,23,97.7,0,1,3,3
218,2020-07-06T03:37:00,0.4,北北西,1.7,北北西,23,97.7,0,1,3,3
219,2020-07-06T03:38:00,0.4,北北西,1.7,北北西,23.1,97.8,0,1,3,3
220,2020-07-06T03:39:00,0.3,北西,1.7,北北西,23.1,97.8,0,1,3,3
221,2020-07-06T03:40:00,0.3,北西,1.7,北北西,23,97.8,0,1,3,3
222,2020-07-06T03:41:00,0.3,西北西,1.7,北北西,22.9,97.7,0,1,3,3
223,2020-07-06T03:42:00,0.2,静穏,0.9,西北西,23,97.7,0,1,3,3
224,2020-07-06T03:43:00,0.3,西北西,0.9,西北西,22.9,97.7,0,1,3,3
225,2020-07-06T03:44:00,0.3,西北西,1,西,22.9,97.7,0,1,3,3
226,2020-07-06T03:45:00,0.3,西北西,1,西,22.9,97.7,0,1,3,3
227,2020-07-06T03:46:00,0.3,西北西,1,西,22.9,97.7,0,1,3,3
228,2020-07-06T03:47:00,0.3,西北西,1,西,22.9,97.7,0.5,1.5,3.5,3.5
229,2020-07-06T03:48:00,0.4,西北西,1,西,22.9,97.8,0.5,1.5,3.5,3.5
230,2020-07-06T03:49:00,0.4,西北西,1,西,22.9,97.8,0.5,1.5,3.5,3.5
231,2020-07-06T03:50:00,0.4,西北西,1,西,22.9,97.8,0.5,1.5,3.5,3.5
232,2020-07-06T03:51:00,0.4,西北西,1,西,22.9,97.8,0.5,1.5,3.5,3.5
233,2020-07-06T03:52:00,0.4,西北西,1,西,22.9,97.8,0.5,1.5,3.5,3.5
234,2020-07-06T03:53:00,0.4,西北西,1,西,22.9,97.8,1,2,4,4
235,2020-07-06T03:54:00,0.4,西北西,1,北西,22.9,97.8,1,2,4,4
236,2020-07-06T03:55:00,0.4,西北西,1,北西,22.9,97.8,1,2,4,4
237,2020-07-06T03:56:00,0.3,北西,1,北西,22.9,97.8,1,2,4,4
238,2020-07-06T03:57:00,0.4,北西,1.4,北東,23,97.8,0.5,1.5,4,4
239,2020-07-06T03:58:00,0.5,北北西,1.4,北東,23,97.9,0.5,1.5,4,4
240,2020-07-06T03:59:00,0.5,北北西,1.4,北東,23,97.8,1,2,4.5,4.5
241,2020-07-06T04:00:00,0.5,北,1.4,北東,23,97.9,1,2,4.5,4.5
242,2020-07-06T04:01:00,0.5,北北東,1.4,北東,23,97.8,1,2,4.5,4.5
243,2020-07-06T04:02:00,0.6,北北東,1.4,北東,23,97.8,1,2,4.5,4.5
244,2020-07-06T04:03:00,0.7,北北東,1.4,北東,23.1,97.9,0.5,2,4.5,4.5
245,2020-07-06T04:04:00,0.7,北東,1.4,北東,23,97.9,0.5,2,4.5,4.5
246,2020-07-06T04:05:00,0.7,北東,1.4,北東,23.1,97.9,0.5,2,4.5,4.5
247,2020-07-06T04:06:00,0.7,北東,1.4,北東,23.1,97.9,1,2.5,5,5
248,2020-07-06T04:07:00,0.6,東北東,1.4,北東,23,97.8,1,2.5,5,5
249,2020-07-06T04:08:00,0.5,東北東,1.5,東,22.9,97.8,1,2.5,5,5
250,2020-07-06T04:09:00,0.5,東北東,1.8,東南東,23,97.8,0.5,2.5,5,5
251,2020-07-06T04:10:00,0.6,東,1.8,東南東,23.1,97.9,0.5,2.5,5,5
252,2020-07-06T04:11:00,0.6,東,1.8,東南東,22.9,97.8,0.5,2.5,5,5
253,2020-07-06T04:12:00,0.6,東南東,1.8,東南東,23,97.8,0.5,2.5,5,5
254,2020-07-06T04:13:00,0.6,東南東,1.8,東南東,22.9,97.8,0.5,2.5,5,5
255,2020-07-06T04:14:00,0.5,南東,1.8,東南東,22.9,97.8,1,3,5.5,5.5
256,2020-07-06T04:15:00,0.5,南東,1.8,東南東,22.9,97.8,1,3,5.5,5.5
257,2020-07-06T04:16:00,0.6,南南東,1.8,東南東,22.9,97.8,0.5,3,5.5,5.5
258,2020-07-06T04:17:00,0.8,南南東,1.9,南,22.9,97.8,0.5,2.5,5.5,5.5
259,2020-07-06T04:18:00,0.8,南南東,1.9,南,22.9,97.8,1,3,6,6
260,2020-07-06T04:19:00,0.9,南南東,2.8,南,22.9,97.8,1,3,6,6
261,2020-07-06T04:20:00,0.9,南,2.8,南,22.9,97.8,1,3,6,6
262,2020-07-06T04:21:00,0.9,南,2.8,南,22.9,97.7,1,3,6,6
263,2020-07-06T04:22:00,1,南,2.8,南,22.9,97.7,1.5,3.5,6.5,6.5
264,2020-07-06T04:23:00,1,南,2.8,南,22.9,97.6,1.5,3.5,6.5,6.5
265,2020-07-06T04:24:00,1,南,2.8,南,23,97.6,1,3.5,6.5,6.5
266,2020-07-06T04:25:00,1,南,2.8,南,22.9,97.6,1,3.5,6.5,6.5
267,2020-07-06T04:26:00,1,南南西,2.8,南,22.9,97.6,1,3.5,6.5,6.5
268,2020-07-06T04:27:00,0.9,南南西,2.8,南,22.9,97.6,1,3.5,6.5,6.5
269,2020-07-06T04:28:00,0.8,南西,2.8,南,22.9,97.6,0.5,3.5,6.5,6.5
270,2020-07-06T04:29:00,0.7,南西,2.8,南南東,22.9,97.5,1,4,7,7
271,2020-07-06T04:30:00,0.6,南西,2,南,22.9,97.5,1,4,7,7
272,2020-07-06T04:31:00,0.5,西南西,1.7,南西,22.9,97.6,1,4,7,7
273,2020-07-06T04:32:00,0.4,西南西,1.7,南西,22.9,97.6,0.5,4,7,7
274,2020-07-06T04:33:00,0.4,西南西,1.7,南西,22.9,97.6,1,4.5,7.5,7.5
275,2020-07-06T04:34:00,0.4,西,1.7,南西,22.9,97.6,1,4.5,7.5,7.5
276,2020-07-06T04:35:00,0.4,西,1.3,南西,22.9,97.6,1,4.5,7.5,7.5
277,2020-07-06T04:36:00,0.4,西,1.1,西南西,22.9,97.6,1,4.5,7.5,7.5
278,2020-07-06T04:37:00,0.4,西,1.1,西南西,22.9,97.6,1,4.5,7.5,7.5
279,2020-07-06T04:38:00,0.4,西,1.1,西南西,22.9,97.6,1,4.5,7.5,7.5
280,2020-07-06T04:39:00,0.4,西,1.1,西南西,22.9,97.6,0.5,4.5,7.5,7.5
281,2020-07-06T04:40:00,0.4,西,1.1,西南西,22.9,97.6,0.5,4.5,7.5,7.5
282,2020-07-06T04:41:00,0.4,西,1.1,西南西,22.9,97.6,0.5,4.5,7.5,7.5
283,2020-07-06T04:42:00,0.4,西,1.1,西南西,22.9,97.7,0.5,4.5,7.5,7.5
284,2020-07-06T04:43:00,0.5,西南西,1.2,南西,22.8,97.6,0,4.5,7.5,7.5
285,2020-07-06T04:44:00,0.5,西南西,1.2,南西,22.8,97.6,0,4.5,7.5,7.5
286,2020-07-06T04:45:00,0.5,西南西,1.2,南西,22.8,97.6,0,4.5,7.5,7.5
287,2020-07-06T04:46:00,0.5,西南西,1.7,南,22.8,97.7,0,4.5,7.5,7.5
288,2020-07-06T04:47:00,0.5,南西,1.7,南,22.9,97.7,0,4,7.5,7.5
289,2020-07-06T04:48:00,0.5,南西,1.7,南,22.8,97.6,0.5,4.5,8,8
290,2020-07-06T04:49:00,0.5,南西,1.7,南,22.8,97.6,0.5,4.5,8,8
291,2020-07-06T04:50:00,0.5,南西,1.7,南,22.8,97.6,0.5,4.5,8,8
292,2020-07-06T04:51:00,0.5,南南西,1.7,南,22.8,97.6,0.5,4.5,8,8
293,2020-07-06T04:52:00,0.6,南南西,2.4,南南西,22.8,97.6,0.5,4.5,8,8
294,2020-07-06T04:53:00,0.7,南南西,2.4,南南西,22.8,97.6,0.5,4,8,8
295,2020-07-06T04:54:00,0.8,南南西,2.5,南南東,22.8,97.6,0.5,4,8,8
296,2020-07-06T04:55:00,0.8,南南西,2.5,南南東,22.8,97.6,0.5,4,8,8
297,2020-07-06T04:56:00,0.8,南南西,2.5,南南東,22.9,97.4,0.5,4,8,8
298,2020-07-06T04:57:00,0.8,南,2.5,南南東,22.9,97.3,0.5,4,8,8
299,2020-07-06T04:58:00,0.9,南,2.5,南南東,22.9,97.2,0,4,8,8
300,2020-07-06T04:59:00,1,南,2.5,南南東,22.9,97.1,0,3.5,8,8
301,2020-07-06T05:00:00,1,南,2.5,南南東,22.9,97.1,0,3.5,8,8
302,2020-07-06T05:01:00,1,南,2.5,南南東,22.8,97,0,3.5,8,8
303,2020-07-06T05:02:00,1,南南東,2.5,南南東,22.8,96.9,0.5,4,8.5,8.5
304,2020-07-06T05:03:00,0.9,南南東,2.5,南南東,22.8,96.9,0.5,4,8.5,8.5
305,2020-07-06T05:04:00,0.9,南南東,2.2,南東,22.9,96.9,0.5,4,8.5,8.5
306,2020-07-06T05:05:00,0.9,南南東,2.1,南,22.9,96.8,0.5,4,8.5,8.5
307,2020-07-06T05:06:00,0.9,南南東,2.1,南,22.9,96.8,0.5,3.5,8.5,8.5
308,2020-07-06T05:07:00,1,南南東,2.1,南,22.9,96.6,0.5,3.5,8.5,8.5
309,2020-07-06T05:08:00,0.9,南南東,2.1,南,22.9,96.5,0.5,3.5,8.5,8.5
310,2020-07-06T05:09:00,0.9,南南東,2.7,南南東,22.9,96.5,0.5,3.5,8.5,8.5
311,2020-07-06T05:10:00,0.9,南南東,2.7,南南東,22.9,96.5,0.5,3.5,8.5,8.5
312,2020-07-06T05:11:00,1,南南東,2.7,南南東,22.9,96.5,0.5,3.5,8.5,8.5
313,2020-07-06T05:12:00,1,南南東,2.7,南南東,22.9,96.4,0,3.5,8.5,8.5
314,2020-07-06T05:13:00,1.1,南南東,2.7,南南東,22.9,96.4,0,3.5,8.5,8.5
315,2020-07-06T05:14:00,1.1,南南東,2.7,南南東,22.9,96.3,0.5,3.5,9,9
316,2020-07-06T05:15:00,1.1,南南東,3.9,南東,22.9,96.3,0.5,3.5,9,9
317,2020-07-06T05:16:00,1.2,南南東,3.9,南東,22.9,96.4,0.5,3.5,9,9
318,2020-07-06T05:17:00,1.2,南南東,3.9,南東,22.9,96.3,0.5,3.5,9,9
319,2020-07-06T05:18:00,1.2,南南東,3.9,南東,22.9,96.2,0.5,3,9,9
320,2020-07-06T05:19:00,1.2,南南東,3.9,南東,22.9,96.2,0.5,3,9,9
321,2020-07-06T05:20:00,1.2,南南東,3.9,南東,22.9,96.2,0.5,3,9,9
322,2020-07-06T05:21:00,1.2,南南東,3.9,南東,22.9,96.2,0.5,3,9,9
323,2020-07-06T05:22:00,1.3,南南東,3.9,南東,22.9,96.2,0.5,2.5,9,9
324,2020-07-06T05:23:00,1.2,南,3.9,南東,23,96.1,0.5,2.5,9,9
325,2020-07-06T05:24:00,1.2,南,3.9,南東,23,96,0,2.5,9,9
326,2020-07-06T05:25:00,1.2,南,3,南東,23,95.8,0,2.5,9,9
327,2020-07-06T05:26:00,1.2,南,3,南東,23,95.7,0,2.5,9,9
328,2020-07-06T05:27:00,1.2,南,3,南東,23,95.7,0.5,3,9.5,9.5
329,2020-07-06T05:28:00,1.2,南,3,南東,23,95.7,0.5,3,9.5,9.5
330,2020-07-06T05:29:00,1.2,南南西,3,南東,22.9,95.6,0.5,2.5,9.5,9.5
331,2020-07-06T05:30:00,1.2,南南西,3,南東,22.8,95.7,0.5,2.5,9.5,9.5
332,2020-07-06T05:31:00,1.1,南南西,3,南東,22.8,96,0.5,2.5,9.5,9.5
333,2020-07-06T05:32:00,0.9,南南西,2.6,南南西,22.8,96.1,0.5,2.5,9.5,9.5
334,2020-07-06T05:33:00,0.8,南西,2.6,南南西,22.8,96.3,0.5,2,9.5,9.5
335,2020-07-06T05:34:00,0.7,南西,2.6,南南西,22.7,96.3,0.5,2,9.5,9.5
336,2020-07-06T05:35:00,0.6,南西,2.2,南,22.7,96.4,0.5,2,9.5,9.5
337,2020-07-06T05:36:00,0.5,南西,1.5,南南西,22.7,96.6,0.5,2,9.5,9.5
338,2020-07-06T05:37:00,0.4,南西,1.3,南南西,22.7,96.7,0,2,9.5,9.5
339,2020-07-06T05:38:00,0.3,南西,1.2,西南西,22.7,96.8,0,2,9.5,9.5
340,2020-07-06T05:39:00,0.3,南南西,1,南西,22.7,96.9,0,2,9.5,9.5
341,2020-07-06T05:40:00,0.2,静穏,0.8,東,22.8,97.1,0,2,9.5,9.5
342,2020-07-06T05:41:00,0.3,南,0.9,東北東,22.8,97.2,0,2,9.5,9.5
343,2020-07-06T05:42:00,0.3,南南東,0.9,東北東,22.9,97.3,0,2,9.5,9.5
344,2020-07-06T05:43:00,0.4,南東,1.1,東,22.9,97.4,0,2,9.5,9.5
345,2020-07-06T05:44:00,0.4,東南東,1.1,東,22.8,97.3,0,2,9.5,9.5
346,2020-07-06T05:45:00,0.4,東,1.1,東,22.8,97.1,0,2,9.5,9.5
347,2020-07-06T05:46:00,0.5,東,1.1,東,22.8,97.2,0,2,9.5,9.5
348,2020-07-06T05:47:00,0.5,東北東,1.1,東,22.9,97.4,0,2,9.5,9.5
349,2020-07-06T05:48:00,0.5,東北東,1.1,東,22.8,97.2,0,1.5,9.5,9.5
350,2020-07-06T05:49:00,0.5,北東,1.1,東,22.7,97,0,1.5,9.5,9.5
351,2020-07-06T05:50:00,0.4,北東,1.1,東,22.7,97,0,1.5,9.5,9.5
352,2020-07-06T05:51:00,0.4,北北東,1.1,東,22.6,97.1,0,1.5,9.5,9.5
353,2020-07-06T05:52:00,0.4,北西,1.1,東,22.6,97.1,0,1.5,9.5,9.5
354,2020-07-06T05:53:00,0.3,西,1,東,22.6,97.3,0,1.5,9.5,9.5
355,2020-07-06T05:54:00,0.3,西,1,東,22.7,97.4,0,1.5,9.5,9.5
356,2020-07-06T05:55:00,0.2,静穏,0.8,西,22.6,97.4,0,1.5,9.5,9.5
357,2020-07-06T05:56:00,0.1,静穏,0.8,西,22.6,97.4,0,1.5,9.5,9.5
358,2020-07-06T05:57:00,0.1,静穏,0.8,西,22.8,97.6,0,1.5,9.5,9.5
359,2020-07-06T05:58:00,0.2,静穏,0.8,西,22.7,97.5,0,1.5,9.5,9.5
360,2020-07-06T05:59:00,0.2,静穏,0.8,西,22.7,97.5,0,1.5,9.5,9.5
361,2020-07-06T06:00:00,0.2,静穏,0.8,西,22.6,97.4,0,1.5,9.5,9.5
362,2020-07-06T06:01:00,0.1,静穏,0.8,西北西,22.7,97.5,0,1.5,9.5,9.5
363,2020-07-06T06:02:00,0.1,静穏,0.8,西北西,22.7,97.6,0,1,9.5,9.5
364,2020-07-06T06:03:00,0.1,静穏,0.8,西北西,22.7,97.6,0,1,9.5,9.5
365,2020-07-06T06:04:00,0.1,静穏,0.8,西北西,22.7,97.6,0,1,9.5,9.5
366,2020-07-06T06:05:00,0.1,静穏,0.8,西北西,22.8,97.6,0,1,9.5,9.5
367,2020-07-06T06:06:00,0.1,静穏,0.8,西北西,22.8,97.6,0,1,9.5,9.5
368,2020-07-06T06:07:00,0.1,静穏,0.8,西北西,22.7,97.6,0,1,9.5,9.5
369,2020-07-06T06:08:00,0.1,静穏,0.8,西北西,22.7,97.6,0,1,9.5,9.5
370,2020-07-06T06:09:00,0.1,静穏,0.6,西,22.7,97.6,0,1,9.5,9.5
371,2020-07-06T06:10:00,0.1,静穏,0.6,西,22.6,97.6,0,1,9.5,9.5
372,2020-07-06T06:11:00,0.1,静穏,0.6,西,22.8,97.6,0,1,9.5,9.5
373,2020-07-06T06:12:00,0.1,静穏,0.6,西,22.7,97.6,0,1,9.5,9.5
374,2020-07-06T06:13:00,0.2,静穏,0.7,北西,22.7,97.6,0,1,9.5,9.5
375,2020-07-06T06:14:00,0.2,静穏,0.7,北西,22.7,97.6,0,0.5,9.5,9.5
376,2020-07-06T06:15:00,0.2,静穏,0.7,北西,22.8,97.7,0,0.5,9.5,9.5
377,2020-07-06T06:16:00,0.2,静穏,0.7,北西,22.8,97.7,0,0.5,9.5,9.5
378,2020-07-06T06:17:00,0.2,静穏,0.7,北西,22.7,97.6,0,0.5,9.5,9.5
379,2020-07-06T06:18:00,0.3,西北西,0.8,西北西,22.7,97.6,0,0.5,9.5,9.5
380,2020-07-06T06:19:00,0.3,北西,0.8,西北西,22.7,97.6,0,0.5,9.5,9.5
381,2020-07-06T06:20:00,0.2,静穏,0.8,西北西,22.8,97.7,0,0.5,9.5,9.5
382,2020-07-06T06:21:00,0.3,北西,0.8,西北西,22.8,97.7,0,0.5,9.5,9.5
383,2020-07-06T06:22:00,0.3,北北西,0.8,西北西,22.8,97.7,0.5,1,10,10
384,2020-07-06T06:23:00,0.3,北北西,1,北,22.8,97.7,0.5,1,10,10
385,2020-07-06T06:24:00,0.4,北北西,1.3,北,22.8,97.7,0.5,1,10,10
386,2020-07-06T06:25:00,0.4,北北西,1.3,北,22.8,97.7,0.5,1,10,10
387,2020-07-06T06:26:00,0.4,北,1.3,北,22.8,97.7,0.5,1,10,10
388,2020-07-06T06:27:00,0.4,北,1.3,北,22.8,97.7,0.5,0.5,10,10
389,2020-07-06T06:28:00,0.4,北北東,1.3,北,22.8,97.6,0.5,0.5,10,10
390,2020-07-06T06:29:00,0.4,北北東,1.3,北,22.9,97.7,0.5,0.5,10,10
391,2020-07-06T06:30:00,0.4,北北東,1.3,北,22.9,97.8,0.5,0.5,10,10
392,2020-07-06T06:31:00,0.4,北北東,1.3,北,22.9,97.7,0.5,0.5,10,10
393,2020-07-06T06:32:00,0.4,北北東,1.3,北,22.9,97.7,0,0.5,10,10
394,2020-07-06T06:33:00,0.4,北北東,1.3,北,22.9,97.7,0,0.5,10,10
395,2020-07-06T06:34:00,0.4,北北東,1,北北西,22.8,97.6,0,0.5,10,10
396,2020-07-06T06:35:00,0.4,北北東,1,北北西,22.9,97.7,0,0.5,10,10
397,2020-07-06T06:36:00,0.4,北北東,1,北北西,22.8,97.6,0,0.5,10,10
398,2020-07-06T06:37:00,0.4,北,1,北北西,22.9,97.6,0,0.5,10,10
399,2020-07-06T06:38:00,0.4,北,1,北北西,22.9,97.7,0,0.5,10,10
400,2020-07-06T06:39:00,0.4,北北西,1,北北西,22.9,97.6,0,0.5,10,10
401,2020-07-06T06:40:00,0.4,北北西,1,北北西,22.8,97.6,0,0.5,10,10
402,2020-07-06T06:41:00,0.4,北西,1,北北西,22.8,97.6,0,0.5,10,10
403,2020-07-06T06:42:00,0.4,北西,0.9,北,22.8,97.6,0,0.5,10,10
404,2020-07-06T06:43:00,0.4,北西,0.8,西北西,22.8,97.6,0,0.5,10,10
405,2020-07-06T06:44:00,0.3,西北西,0.8,西北西,22.9,97.7,0,0.5,10,10
406,2020-07-06T06:45:00,0.4,西北西,0.8,西北西,22.9,97.7,0,0.5,10,10
407,2020-07-06T06:46:00,0.4,北西,0.8,西北西,22.9,97.7,0,0.5,10,10
408,2020-07-06T06:47:00,0.4,西北西,0.8,西北西,22.9,97.7,0,0.5,10,10